CW1035 Weather Reports


Display with metric or nautical units.
time (UTC)temp
F
wind
direction
speed
MPH
gust
MPH
rain 1hr
in
rain 24hr
in
rain mn
in
humidity
%
barometer
mb
20260904013244 61 339 1.0 2.0 0.00 0.10 0.10 76 1010.5
20260904012743 61 339 0.0 2.0 0.00 0.10 0.10 76 1010.6
20260904011743 62 106 0.0 3.0 0.00 0.10 0.10 76 1010.5
20260904011243 62 328 2.0 3.0 0.00 0.10 0.10 74 1010.5
20260904010243 61 21 2.0 4.0 0.00 0.10 0.10 75 1010.4
20260904005742 61 21 2.0 4.0 0.00 0.10 0.10 75 1010.3
20260904004743 61 21 2.0 4.0 0.00 0.10 0.10 75 1010.3
20260904004243 61 17 2.0 4.0 0.00 0.10 0.10 75 1010.3
20260904003742 61 133 1.0 3.0 0.00 0.10 0.10 74 1010.3
20260904003242 62 102 1.0 3.0 0.00 0.10 0.10 74 1010.3
20260904002742 61 34 0.0 3.0 0.00 0.10 0.10 75 1010.3
20260904002242 62 30 1.0 4.0 0.00 0.10 0.10 75 1010.4
20260904001741 62 93 1.0 4.0 0.00 0.10 0.10 76 1010.4
20260904001242 62 297 1.0 2.0 0.00 0.10 0.10 75 1010.4
20260904000741 62 297 2.0 3.0 0.00 0.10 0.10 75 1010.5
20260904000241 62 297 1.0 3.0 0.00 0.10 0.10 75 1010.4
20260903235741 61 297 1.0 2.0 0.00 0.10 0.10 76 1010.4
20260903235241 61 297 1.0 2.0 0.00 0.10 0.10 76 1010.3
20260903234741 61 297 0.0 2.0 0.00 0.10 0.10 77 1010.4
20260903234241 61 297 1.0 2.0 0.00 0.10 0.10 77 1010.4
20260903233741 61 297 0.0 2.0 0.00 0.10 0.10 78 1010.5
20260903233241 61 297 1.0 3.0 0.00 0.10 0.10 78 1010.4
20260903232741 61 297 1.0 3.0 0.00 0.10 0.10 78 1010.4
20260903232241 61 297 1.0 3.0 0.00 0.10 0.10 79 1010.4
20260903231740 61 297 1.0 3.0 0.00 0.10 0.10 80 1010.4
20260903231241 61 79 0.0 3.0 0.00 0.10 0.10 79 1010.5
20260903230240 61 319 1.0 3.0 0.00 0.10 0.10 78 1010.6
20260903225741 61 31 1.0 3.0 0.00 0.10 0.10 78 1010.7
20260903225240 62 31 3.0 3.0 0.00 0.10 0.10 77 1010.6
20260903224740 62 128 0.0 2.0 0.00 0.10 0.10 77 1010.7
20260903223740 61 32 0.0 4.0 0.00 0.10 0.10 77 1010.8
20260903222739 61 27 1.0 5.0 0.00 0.10 0.10 76 1010.8
20260903221740 62 84 0.0 6.0 0.00 0.10 0.10 75 1010.8
20260903221239 62 102 2.0 6.0 0.00 0.10 0.10 75 1010.8
20260903220239 62 105 2.0 8.0 0.00 0.10 0.10 76 1010.8
20260903215739 62 155 1.0 7.0 0.00 0.10 0.10 76 1010.8
20260903214239 61 134 1.0 7.0 0.00 0.11 0.10 78 1010.8
20260903213739 61 110 2.0 7.0 0.00 0.11 0.10 77 1010.7
20260903213238 61 108 4.0 8.0 0.00 0.11 0.10 77 1010.7
20260903212738 61 89 5.0 8.0 0.00 0.11 0.10 76 1010.7
20260903212239 62 117 5.0 8.0 0.00 0.11 0.10 76 1010.7
20260903211738 61 115 3.0 10.0 0.00 0.11 0.10 76 1010.6
20260903211238 61 116 4.0 11.0 0.00 0.11 0.10 76 1010.7
20260903210237 62 125 4.0 12.0 0.00 0.11 0.10 76 1010.5
20260903205738 61 122 7.0 12.0 0.00 0.11 0.10 76 1010.5
20260903205237 61 103 6.0 13.0 0.00 0.11 0.10 76 1010.4
20260903204738 62 104 6.0 13.0 0.00 0.11 0.10 76 1010.4
20260903204237 62 112 10.0 14.0 0.00 0.11 0.10 75 1010.3
20260903203737 62 109 6.0 14.0 0.00 0.11 0.10 74 1010.3
20260903202737 62 65 8.0 15.0 0.00 0.11 0.10 75 1010.3
20260903202237 62 114 8.0 13.0 0.00 0.11 0.10 75 1010.2
20260903201737 62 133 7.0 13.0 0.00 0.11 0.10 76 1010.2
20260903200736 62 134 6.0 18.0 0.00 0.11 0.10 76 1010.2
20260903195737 62 89 8.0 14.0 0.00 0.11 0.10 75 1010.1
20260903195237 63 150 5.0 14.0 0.00 0.11 0.10 74 1010.0
20260903194737 63 94 6.0 16.0 0.00 0.11 0.10 73 1010.1
20260903194236 62 130 5.0 16.0 0.00 0.11 0.10 77 1010.0
20260903193736 62 101 8.0 15.0 0.00 0.11 0.10 77 1010.0
20260903192235 63 108 8.0 12.0 0.00 0.11 0.10 76 1010.0
20260903191236 62 121 4.0 13.0 0.00 0.11 0.10 75 1009.9
20260903185235 62 97 3.0 14.0 0.00 0.11 0.10 76 1009.8
20260903184235 62 82 3.0 17.0 0.00 0.11 0.10 76 1009.7
20260903183735 61 95 8.0 15.0 0.00 0.11 0.10 77 1009.7
20260903183235 61 115 8.0 15.0 0.00 0.11 0.10 77 1009.5
20260903182734 61 118 10.0 15.0 0.00 0.11 0.10 78 1009.5
20260903181235 61 117 11.0 16.0 0.00 0.11 0.10 81 1009.4
20260903180305 61 120 11.0 16.0 0.00 0.11 0.10 81 1009.5
20260903175734 61 139 2.0 17.0 0.00 0.11 0.10 81 1009.5
20260903175234 60 104 10.0 18.0 0.00 0.11 0.10 82 1009.4
20260903174734 60 121 11.0 18.0 0.00 0.11 0.10 82 1009.4
20260903173734 60 93 7.0 18.0 0.00 0.11 0.10 82 1009.2
20260903172733 60 150 17.0 17.0 0.00 0.11 0.10 82 1009.1
20260903172234 60 103 9.0 17.0 0.00 0.11 0.10 82 1009.1
20260903171233 59 103 8.0 16.0 0.00 0.11 0.10 84 1009.0
20260903170734 59 90 9.0 19.0 0.00 0.11 0.10 85 1008.9
20260903170303 59 119 11.0 19.0 0.00 0.11 0.10 85 1008.9
20260903165733 59 98 8.0 17.0 0.00 0.11 0.10 85 1008.9
20260903165233 59 92 9.0 14.0 0.00 0.11 0.10 86 1008.8
20260903164733 59 145 7.0 15.0 0.00 0.11 0.10 85 1008.8
20260903164233 58 131 13.0 15.0 0.00 0.11 0.10 86 1008.8
20260903161733 58 148 5.0 16.0 0.00 0.11 0.10 88 1008.8
20260903161233 57 98 8.0 16.0 0.00 0.11 0.10 88 1008.7
20260903160732 57 141 9.0 16.0 0.00 0.11 0.10 88 1008.7
20260903160232 57 100 5.0 16.0 0.00 0.11 0.10 89 1008.6
20260903155732 57 129 12.0 16.0 0.00 0.11 0.10 89 1008.6
20260903155232 57 125 10.0 13.0 0.00 0.11 0.10 90 1008.7
20260903154732 56 141 7.0 13.0 0.00 0.11 0.10 90 1008.7
20260903153731 56 118 9.0 14.0 0.00 0.11 0.10 91 1008.8
20260903152731 55 115 8.0 14.0 0.00 0.11 0.10 91 1008.8
20260903152231 55 130 7.0 14.0 0.00 0.11 0.10 91 1008.7
20260903151801 55 128 3.0 14.0 0.00 0.11 0.10 91 1008.8
20260903150731 55 125 6.0 14.0 0.00 0.11 0.10 91 1008.8
20260903150300 55 134 8.0 13.0 0.00 0.11 0.10 92 1008.8
20260903145801 55 143 9.0 14.0 0.00 0.11 0.10 92 1008.8
20260903145231 55 110 8.0 15.0 0.00 0.11 0.10 91 1008.8
20260903144801 55 79 2.0 15.0 0.00 0.11 0.10 91 1008.7
20260903144300 55 96 5.0 14.0 0.00 0.11 0.10 91 1008.7
20260903143800 55 98 4.0 12.0 0.00 0.11 0.10 91 1008.6
20260903143300 55 135 6.0 14.0 0.00 0.11 0.10 91 1008.6
20260903142800 55 147 4.0 14.0 0.00 0.11 0.10 91 1008.5
20260903141800 55 120 4.0 12.0 0.00 0.11 0.10 91 1008.5
20260903140800 55 136 10.0 18.0 0.00 0.11 0.10 91 1008.3
20260903140259 55 142 4.0 18.0 0.00 0.11 0.10 91 1008.3
20260903135759 55 144 6.0 14.0 0.00 0.11 0.10 91 1008.2
20260903135259 55 117 5.0 16.0 0.00 0.11 0.10 91 1008.2
20260903134759 55 147 7.0 16.0 0.00 0.11 0.10 91 1008.2
20260903134258 54 117 3.0 15.0 0.00 0.11 0.10 91 1008.0
20260903133759 54 167 7.0 15.0 0.00 0.11 0.10 92 1008.0
20260903132258 54 136 4.0 13.0 0.01 0.11 0.10 93 1008.0
20260903131258 54 124 9.0 13.0 0.03 0.11 0.10 93 1008.0
20260903130758 54 138 5.0 14.0 0.04 0.11 0.10 93 1007.8
20260903125758 54 133 4.0 16.0 0.05 0.11 0.10 93 1007.8
20260903125258 54 122 12.0 16.0 0.06 0.11 0.10 93 1007.7
20260903124757 54 155 9.0 17.0 0.06 0.11 0.10 93 1007.7
20260903124257 54 134 10.0 17.0 0.07 0.11 0.10 94 1007.7
20260903123758 54 188 8.0 15.0 0.08 0.11 0.10 94 1007.7
20260903123257 54 98 4.0 18.0 0.07 0.10 0.09 94 1007.7
20260903122257 54 158 10.0 17.0 0.09 0.10 0.09 93 1007.5
20260903121757 54 105 12.0 17.0 0.08 0.09 0.08 93 1007.5
20260903121257 55 136 8.0 17.0 0.07 0.08 0.07 93 1007.6
20260903120757 55 98 8.0 14.0 0.06 0.07 0.06 93 1007.5
20260903120256 55 165 7.0 14.0 0.05 0.06 0.05 93 1007.5
20260903115256 55 153 4.0 17.0 0.04 0.05 0.04 92 1007.4
20260903114756 55 86 5.0 17.0 0.04 0.05 0.04 92 1007.3
20260903114256 55 122 5.0 17.0 0.03 0.04 0.03 92 1007.3
20260903113756 55 84 5.0 18.0 0.02 0.03 0.02 91 1007.2
20260903113256 55 134 12.0 20.0 0.02 0.03 0.02 91 1007.2
20260903112756 55 124 6.0 21.0 0.01 0.02 0.01 90 1007.1
20260903112255 56 172 9.0 21.0 0.00 0.01 0.00 89 1007.1
20260903111755 56 155 14.0 19.0 0.00 0.01 0.00 88 1007.1
20260903111255 56 115 9.0 19.0 0.00 0.01 0.00 88 1006.9
20260903110756 56 89 8.0 15.0 0.00 0.01 0.00 88 1006.9
20260903110255 56 98 14.0 15.0 0.00 0.01 0.00 88 1006.9
20260903105755 56 78 4.0 16.0 0.00 0.01 0.00 88 1006.9
20260903105255 56 131 7.0 17.0 0.00 0.01 0.00 88 1006.9
20260903104755 56 182 8.0 17.0 0.00 0.01 0.00 88 1006.8
20260903104254 56 117 8.0 16.0 0.00 0.01 0.00 88 1006.8
20260903103755 56 136 8.0 16.0 0.00 0.01 0.00 88 1006.9
20260903102754 56 115 8.0 20.0 0.00 0.01 0.00 87 1007.0
20260903102255 56 135 8.0 20.0 0.00 0.01 0.00 87 1006.9
20260903101754 56 193 8.0 20.0 0.00 0.01 0.00 87 1006.8
20260903101254 56 145 14.0 20.0 0.00 0.01 0.00 87 1006.9
20260903100254 56 94 9.0 17.0 0.00 0.01 0.00 87 1006.8
20260903095754 56 190 6.0 16.0 0.00 0.01 0.00 87 1006.9
20260903095253 56 100 9.0 16.0 0.00 0.01 0.00 87 1007.0
20260903094754 56 155 6.0 16.0 0.00 0.01 0.00 87 1006.8
20260903094253 56 134 7.0 16.0 0.00 0.01 0.00 87 1006.8
20260903093754 56 155 9.0 16.0 0.00 0.01 0.00 87 1006.7
20260903093253 56 107 6.0 16.0 0.00 0.01 0.00 88 1006.7
20260903092753 56 98 5.0 12.0 0.00 0.01 0.00 87 1006.8
20260903091253 56 165 5.0 17.0 0.00 0.01 0.00 87 1006.6
20260903090753 56 143 10.0 14.0 0.00 0.01 0.00 87 1006.6
20260903090253 56 143 4.0 14.0 0.00 0.01 0.00 87 1006.5
20260903085753 56 167 6.0 19.0 0.00 0.01 0.00 87 1006.6
20260903085253 56 131 9.0 19.0 0.00 0.01 0.00 87 1006.5
20260903084752 56 161 4.0 14.0 0.00 0.01 0.00 87 1006.6
20260903083752 56 124 10.0 12.0 0.00 0.01 0.00 88 1006.7
20260903083252 56 212 3.0 12.0 0.00 0.01 0.00 88 1006.7
20260903082752 56 117 4.0 12.0 0.00 0.01 0.00 88 1006.7
20260903081752 56 130 4.0 13.0 0.00 0.01 0.00 88 1006.6
20260903081251 56 171 9.0 11.0 0.00 0.01 0.00 88 1006.7
20260903080751 56 137 4.0 16.0 0.00 0.01 0.00 88 1006.6
20260903080252 56 141 7.0 16.0 0.00 0.01 0.00 88 1006.7
20260903075751 56 131 6.0 15.0 0.00 0.01 0.00 88 1006.7
20260903075251 56 132 8.0 15.0 0.00 0.01 0.00 88 1006.7
20260903074251 56 152 11.0 14.0 0.00 0.01 0.00 88 1006.5
20260903073751 56 148 4.0 10.0 0.00 0.01 0.00 88 1006.5
20260903072750 56 158 4.0 11.0 0.00 0.01 0.00 88 1006.5
20260903072250 56 221 4.0 11.0 0.00 0.01 0.00 88 1006.5
20260903071750 56 152 2.0 9.0 0.00 0.01 0.00 88 1006.5
20260903071250 56 169 5.0 9.0 0.00 0.01 0.00 88 1006.4
20260903070750 56 147 3.0 14.0 0.00 0.01 0.00 88 1006.5
20260903070250 56 121 5.0 15.0 0.00 0.01 0.00 88 1006.4
20260903065750 56 176 14.0 15.0 0.00 0.01 0.01 88 1006.4
20260903065250 56 144 6.0 14.0 0.00 0.01 0.01 88 1006.4
20260903064750 56 143 7.0 18.0 0.00 0.01 0.01 88 1006.4
20260903063750 56 100 4.0 15.0 0.00 0.01 0.01 89 1006.3
20260903063250 56 205 4.0 15.0 0.00 0.01 0.01 90 1006.3
20260903062749 56 179 3.0 12.0 0.00 0.01 0.01 90 1006.4
20260903061749 56 179 3.0 13.0 0.00 0.01 0.01 89 1006.3
20260903061249 56 169 1.0 16.0 0.00 0.01 0.01 89 1006.3
20260903060749 56 133 8.0 16.0 0.00 0.01 0.01 89 1006.2
20260903060248 56 163 4.0 16.0 0.00 0.01 0.01 89 1006.1
20260903055748 56 160 6.0 12.0 0.00 0.01 0.01 89 1006.2
20260903055248 56 139 6.0 12.0 0.00 0.01 0.01 89 1006.2
20260903054749 56 174 4.0 12.0 0.00 0.01 0.01 89 1006.2
20260903054248 56 162 5.0 8.0 0.00 0.01 0.01 89 1006.2
20260903053748 56 192 2.0 8.0 0.00 0.01 0.01 89 1006.3
20260903053248 56 148 2.0 8.0 0.00 0.01 0.01 89 1006.3
20260903052748 56 127 2.0 11.0 0.00 0.01 0.01 89 1006.2
20260903052248 57 168 2.0 11.0 0.00 0.01 0.01 89 1006.3
20260903051748 57 155 4.0 10.0 0.00 0.01 0.01 89 1006.2
20260903051248 57 179 1.0 12.0 0.00 0.01 0.01 89 1006.2
20260903050747 57 152 7.0 12.0 0.00 0.01 0.01 89 1006.1
20260903050247 57 138 6.0 10.0 0.00 0.01 0.01 88 1006.2
20260903045747 56 129 3.0 10.0 0.00 0.01 0.01 88 1006.2
20260903044747 56 140 2.0 8.0 0.00 0.01 0.01 88 1006.3
20260903044247 57 130 2.0 8.0 0.00 0.01 0.01 87 1006.2
20260903043747 57 141 1.0 11.0 0.00 0.01 0.01 87 1006.2
20260903042747 56 143 5.0 9.0 0.00 0.01 0.01 88 1006.1
20260903042247 56 158 2.0 6.0 0.00 0.01 0.01 88 1005.9
20260903041747 56 155 2.0 7.0 0.00 0.01 0.01 88 1005.9
20260903041246 57 122 4.0 7.0 0.00 0.01 0.01 87 1005.8
20260903040246 57 102 3.0 6.0 0.00 0.01 0.01 87 1005.8
20260903035746 57 139 4.0 6.0 0.00 0.01 0.01 86 1005.8
20260903034745 57 145 6.0 7.0 0.00 0.01 0.01 86 1005.5
20260903034245 57 127 1.0 9.0 0.00 0.01 0.01 85 1005.4
20260903033746 57 206 2.0 9.0 0.00 0.01 0.01 85 1005.3
20260903033245 57 121 8.0 8.0 0.00 0.01 0.01 85 1005.1
20260903032745 57 204 4.0 12.0 0.00 0.01 0.01 85 1005.0
20260903032245 57 169 2.0 13.0 0.00 0.01 0.01 85 1004.9
20260903031745 57 159 3.0 13.0 0.00 0.01 0.01 85 1004.8
20260903031245 57 153 10.0 11.0 0.00 0.01 0.01 85 1004.7
20260903030745 57 158 2.0 10.0 0.00 0.01 0.01 85 1004.6
20260903030244 58 203 6.0 9.0 0.00 0.01 0.01 85 1004.5
20260903025744 58 215 5.0 10.0 0.00 0.01 0.01 85 1004.4
20260903025245 58 154 2.0 12.0 0.00 0.01 0.01 85 1004.4
20260903024744 58 172 3.0 12.0 0.00 0.01 0.01 84 1004.3
20260903024244 58 142 2.0 17.0 0.00 0.01 0.01 84 1004.1
20260903023744 59 155 3.0 17.0 0.00 0.01 0.01 84 1003.9
20260903023244 59 145 5.0 13.0 0.00 0.01 0.01 84 1003.7
20260903022744 59 112 5.0 13.0 0.00 0.01 0.01 83 1003.7
20260903021744 59 135 4.0 16.0 0.00 0.01 0.01 83 1003.4
20260903021243 59 89 5.0 16.0 0.00 0.01 0.01 82 1003.4
20260903020743 60 124 8.0 17.0 0.00 0.01 0.01 82 1003.4
20260903020243 60 177 10.0 18.0 0.00 0.01 0.01 82 1003.3
20260903015743 59 152 14.0 18.0 0.00 0.01 0.01 83 1003.3
20260903015243 59 174 6.0 16.0 0.00 0.01 0.01 84 1003.2
20260903014743 59 186 11.0 17.0 0.00 0.01 0.01 84 1003.1
20260903014243 59 191 4.0 19.0 0.00 0.01 0.01 85 1003.1
20260903013742 59 143 9.0 21.0 0.00 0.01 0.01 85 1003.1